Theta_e
308 300 297 297 300 302 303 304 303 302 304 301 299 298 298 296 294 296 298 298 296 293 292 293 294 294 295 297 299 299 296 295 295 295 294 295 296 296 296 297 300 301 304 308 311 313 315 318 321 323 323 324 324 324 324 323 323 323 323 321 319 320 321 321 321 321 320 319 318 318 319 319 320 320 320 320 321 321 322 321 321 321 322 322 322 321
306 297 297 301 303 304 304 304 303 303 303 300 298 297 297 296 297 297 299 299 295 295 293 293 292 293 295 297 298 298 295 296 297 297 298 297 296 296 296 297 297 300 302 302 303 305 309 314 317 321 322 321 321 323 324 323 323 323 323 322 321 320 320 321 322 322 321 321 321 320 320 320 321 320 319 320 321 322 322 321 321 321 322 322 322 321
297 295 299 302 305 306 305 304 303 303 302 300 298 296 295 295 295 298 296 294 295 295 295 292 291 294 295 297 298 298 297 298 299 299 300 300 299 298 296 297 298 297 298 300 303 304 305 310 314 318 321 322 323 323 323 325 324 323 323 323 323 321 320 321 322 322 321 322 321 321 320 321 319 319 321 321 321 320 321 322 322 321 322 322 322 322
293 297 301 304 305 304 304 304 303 302 302 299 297 295 295 294 296 292 297 292 295 295 290 289 290 295 296 296 297 299 299 299 300 300 300 301 301 300 299 299 298 298 298 298 300 301 304 307 311 315 319 321 322 322 323 324 324 324 323 324 323 322 321 321 321 320 322 322 322 321 320 319 321 319 318 318 318 319 320 321 322 322 322 322 322 322
296 299 305 304 304 305 302 303 302 300 298 300 300 298 294 294 297 297 295 290 293 294 290 290 292 295 295 295 297 300 298 299 301 300 300 301 300 302 302 300 299 300 299 300 300 300 302 304 307 312 317 320 321 322 323 323 324 325 324 324 324 324 322 321 320 320 321 319 317 317 315 314 314 315 314 315 318 319 320 320 321 322 322 322 322 322
297 299 305 302 302 304 303 301 302 301 298 299 301 300 297 296 296 295 290 292 291 291 292 293 286 292 292 296 298 302 293 295 297 298 300 302 302 300 300 301 301 300 301 301 302 302 302 303 306 309 314 317 320 322 323 324 325 325 325 324 324 325 324 322 321 320 320 319 319 317 317 316 316 316 316 316 318 319 319 320 322 319 321 321 321 322
299 300 302 300 302 302 302 301 303 303 299 297 299 303 300 297 296 293 289 293 286 287 291 293 291 290 289 290 292 294 294 297 296 296 298 299 300 300 301 302 302 302 302 301 301 302 300 301 304 306 311 315 318 321 323 324 324 324 325 324 324 325 324 324 322 320 319 319 319 319 319 319 318 317 318 320 320 319 320 320 320 321 319 321 321 321
300 299 300 301 301 300 299 298 302 303 299 296 302 303 301 296 293 292 291 294 287 289 290 288 290 288 291 296 294 292 291 294 294 296 297 298 299 299 300 302 303 304 303 303 303 303 303 302 303 305 308 313 317 320 322 323 324 324 324 324 324 325 323 325 324 321 320 320 320 319 319 319 319 319 319 319 320 318 316 319 320 319 319 319 321 321
301 297 299 298 299 298 297 301 302 304 300 298 302 304 301 299 295 294 292 289 289 290 289 285 287 288 288 291 287 290 294 296 297 299 299 298 298 300 301 302 302 302 303 304 304 304 303 303 303 304 306 310 315 318 320 322 323 324 324 324 324 324 324 324 324 322 321 320 321 320 320 319 319 320 320 315 315 318 317 318 318 319 319 319 319 321
300 301 301 301 299 296 299 300 303 304 300 298 301 301 299 298 295 296 289 290 288 288 288 287 288 288 290 292 289 289 290 294 298 300 301 301 300 299 299 300 301 302 302 303 303 304 305 304 303 304 305 307 312 317 319 321 322 323 323 323 322 323 324 324 324 323 322 321 320 320 320 319 320 319 318 314 316 316 316 318 318 318 319 319 319 320
301 304 305 302 299 299 298 302 304 303 298 302 303 298 294 292 290 288 288 288 288 286 288 291 289 291 287 295 294 291 292 298 299 296 296 296 298 299 300 300 301 301 301 301 301 302 303 303 302 300 302 306 309 313 316 319 320 321 322 322 321 323 324 323 323 323 323 322 321 321 321 320 320 320 318 317 317 317 315 318 318 318 319 319 320 320
300 301 301 301 305 300 303 296 298 301 300 301 293 292 295 290 291 288 286 287 286 286 289 291 288 289 286 289 294 298 296 295 299 299 299 297 298 300 302 301 301 300 300 300 300 300 300 300 298 297 300 303 307 310 313 316 317 318 320 320 320 321 322 322 323 322 323 323 322 322 322 322 322 321 320 319 319 319 318 318 318 316 317 318 320 322
295 297 300 301 303 303 299 298 295 299 299 298 296 297 292 286 287 284 286 283 284 286 285 283 287 285 288 292 289 291 295 296 296 297 299 298 298 299 299 298 299 298 296 297 298 299 299 300 300 298 299 300 304 309 312 314 315 317 318 319 319 320 321 322 322 322 322 322 323 323 323 323 323 322 322 321 320 320 319 318 317 316 318 320 321 323
292 298 299 298 301 304 302 295 291 292 297 296 296 294 290 283 283 284 285 284 283 284 284 285 286 287 292 292 299 300 300 299 299 298 298 297 298 297 297 296 295 294 294 296 298 298 299 299 299 300 300 300 303 307 311 313 314 316 317 318 319 320 320 321 320 321 321 322 323 323 323 323 323 322 322 322 321 320 319 319 318 318 318 319 321 322
285 286 294 298 295 304 302 300 298 296 297 297 301 298 293 291 285 283 284 283 285 283 283 284 288 284 286 289 291 295 299 298 296 296 295 296 297 297 295 293 292 292 293 294 295 297 298 299 299 300 300 300 301 304 309 311 313 315 316 317 317 318 319 319 320 320 320 322 322 322 323 323 323 323 322 322 322 320 318 317 317 318 318 319 319 320
290 290 297 303 300 303 300 303 303 299 297 298 296 296 292 291 286 284 278 281 276 278 277 279 287 287 291 291 293 294 291 292 293 292 291 293 293 291 293 294 295 296 296 295 293 295 296 297 296 297 297 298 298 301 306 309 312 313 315 316 317 318 318 319 318 320 320 321 322 322 322 322 321 320 321 320 318 318 318 317 317 318 318 319 319 319
289 288 298 300 301 302 302 301 300 303 289 294 295 291 295 292 286 279 278 277 278 276 280 279 282 287 288 296 300 300 297 296 294 292 290 291 291 289 292 294 294 295 295 295 294 294 295 292 293 295 296 297 297 298 302 306 310 312 313 314 315 316 316 317 317 320 320 320 320 320 321 321 320 320 319 320 318 316 315 316 317 318 318 318 318 317
289 289 297 297 296 302 306 304 302 304 301 296 290 295 294 296 291 286 280 270 270 277 280 279 285 285 282 288 288 296 298 300 300 299 296 291 288 289 292 293 294 295 296 294 291 292 292 292 293 294 295 296 297 298 299 302 306 311 313 314 314 314 315 316 316 317 319 319 319 319 319 319 320 320 319 318 317 315 315 315 316 315 316 316 316 317
295 285 288 296 298 299 301 301 297 298 295 299 297 300 295 287 288 287 285 277 275 276 276 274 280 279 286 290 285 287 291 295 297 297 292 290 288 289 290 292 292 292 292 292 292 291 292 293 294 294 295 295 295 295 297 299 301 303 303 307 311 313 314 315 316 316 316 317 318 319 318 318 318 318 318 317 316 315 315 316 316 315 316 314 314 313
296 288 288 292 294 297 300 299 289 295 295 294 297 296 295 294 290 288 288 284 284 277 271 280 276 283 286 289 292 292 289 291 294 291 291 294 294 293 291 292 293 293 294 293 292 292 292 293 293 294 295 295 295 294 295 295 296 301 304 304 306 307 306 306 309 310 312 313 314 315 313 314 316 316 317 317 316 315 316 316 315 315 313 314 312 314
292 292 286 289 293 298 291 296 294 296 291 290 294 291 291 292 291 292 288 286 284 282 278 278 278 284 284 289 293 296 296 294 293 293 294 292 291 292 292 293 293 294 295 293 292 292 292 293 292 292 291 291 290 290 291 293 295 298 299 301 303 305 306 306 307 307 310 309 311 310 312 312 312 313 314 314 314 315 315 314 312 314 315 310 313 312
289 290 287 287 289 291 294 300 300 299 298 295 295 293 294 292 288 287 285 284 278 282 276 274 282 288 281 289 295 295 298 299 300 297 293 291 291 291 292 292 292 293 293 293 292 292 293 292 292 291 288 288 289 289 291 293 292 292 295 299 300 299 302 303 303 306 307 307 309 309 310 310 309 311 310 310 310 311 312 312 312 311 308 309 311 309
295 291 290 287 289 293 296 297 291 298 300 298 298 294 297 294 292 289 285 285 283 283 277 274 274 286 289 290 293 294 295 296 293 291 293 291 292 292 292 291 290 291 292 292 293 293 292 291 291 290 290 291 291 292 290 290 293 294 293 293 294 298 300 301 303 302 303 304 305 306 306 305 304 304 304 307 307 308 309 308 306 305 307 307 305 301
294 289 287 286 289 290 291 292 293 290 298 295 294 292 295 293 295 293 291 287 286 284 285 283 280 289 288 286 291 289 288 286 285 286 291 291 291 292 291 290 290 289 289 288 288 289 291 289 288 289 290 292 293 292 292 293 291 291 292 293 292 294 295 294 295 295 297 298 299 298 297 300 299 299 301 304 305 306 305 304 303 299 302 303 299 301
292 289 291 285 285 285 287 291 290 290 293 293 292 293 297 297 296 289 285 284 284 287 288 287 282 289 289 284 285 285 286 288 290 291 287 289 288 289 291 290 288 288 287 288 289 290 290 288 290 293 293 294 294 291 290 292 293 293 292 291 293 293 292 292 292 293 295 294 295 292 294 295 296 300 300 303 302 302 299 297 296 295 299 298 298 300
294 292 290 284 280 279 279 280 283 286 290 293 295 293 295 295 294 289 289 282 285 288 287 286 286 293 286 287 286 285 284 286 287 287 285 286 288 290 290 290 289 288 290 290 290 289 292 293 291 290 290 294 293 292 291 291 291 290 289 291 289 290 289 289 287 289 291 290 293 293 293 295 296 299 301 300 299 298 295 294 295 295 295 298 305 298
288 291 292 290 288 286 288 291 295 296 293 290 291 292 293 295 296 295 293 289 286 289 287 289 291 290 285 288 286 286 285 286 288 288 289 288 287 287 287 288 289 290 291 291 291 292 290 289 292 293 293 293 290 288 289 289 291 289 288 288 288 288 288 287 288 288 291 290 293 294 294 295 296 297 297 296 296 294 294 295 294 296 298 294 298 298
287 288 292 291 292 293 293 293 296 296 292 293 292 291 293 293 294 292 290 288 293 289 285 290 291 290 287 285 284 285 286 284 285 286 287 287 287 288 289 287 290 289 288 287 289 290 293 294 292 291 291 289 291 289 287 287 288 290 290 292 290 288 287 288 289 289 291 292 293 294 295 295 293 293 293 293 293 294 294 294 293 295 294 293 298 297
291 289 293 292 291 293 292 294 296 295 295 294 294 293 291 293 293 290 291 294 293 288 286 291 291 288 290 289 289 289 288 288 289 289 288 288 287 286 287 289 290 290 289 289 291 291 292 292 293 292 290 290 287 288 288 287 287 286 288 289 289 288 289 288 290 290 292 292 294 294 290 290 291 293 292 292 294 295 296 296 295 293 292 292 293 293
293 290 292 293 291 292 291 293 295 294 294 294 294 294 294 293 293 293 293 294 294 291 292 292 290 288 291 291 294 295 292 289 287 285 285 287 287 288 288 288 289 290 290 292 293 292 292 292 291 290 289 288 289 289 289 289 290 291 292 292 289 289 288 289 290 292 292 293 293 290 290 291 292 293 293 294 296 295 294 294 293 293 292 293 292 292
294 289 294 291 289 289 290 291 293 294 293 291 293 294 294 294 293 294 294 294 294 293 292 291 290 290 294 294 295 297 297 291 286 288 288 287 286 286 288 290 290 291 291 291 291 291 291 290 290 289 289 290 289 290 291 291 292 290 290 290 290 290 289 290 291 292 293 294 292 291 292 293 293 294 294 295 295 293 293 294 292 291 291 291 291 292
294 289 294 290 287 287 289 290 291 293 292 291 291 292 292 292 290 292 291 294 292 291 292 292 289 290 296 296 294 294 295 297 296 294 288 290 289 286 287 289 290 291 291 291 291 291 291 291 291 291 291 291 291 290 291 292 292 290 292 292 291 291 290 291 293 294 294 293 293 294 295 295 295 294 294 293 294 293 292 291 290 291 291 291 290 290
292 291 289 289 286 286 288 290 289 289 289 287 288 292 293 294 294 295 295 296 295 295 291 289 290 296 298 293 293 292 294 295 297 298 296 293 291 290 290 290 290 290 291 292 292 293 293 292 292 293 292 291 292 292 292 293 291 292 294 293 293 290 291 293 294 295 295 294 295 295 295 295 295 294 293 293 293 292 291 290 290 290 290 291 291 289
294 292 290 291 286 286 288 287 288 286 280 282 295 298 296 294 294 292 292 294 296 296 295 297 297 298 292 293 294 295 291 294 297 298 299 300 300 297 291 289 290 290 290 291 292 293 294 293 292 292 292 293 293 293 293 292 294 295 292 291 289 291 292 293 294 296 296 295 295 295 295 294 294 293 293 292 291 291 291 290 291 290 290 290 289 290
290 291 290 290 287 286 287 287 283 278 281 295 298 299 299 298 297 295 295 296 296 297 297 296 297 298 297 297 297 297 294 295 294 295 296 297 299 300 300 294 291 292 293 294 293 292 292 293 292 290 289 291 293 293 291 291 293 291 290 291 292 292 293 293 294 295 296 295 295 294 294 294 293 292 292 291 291 291 291 291 290 290 290 290 290 290
287 290 290 289 289 287 286 284 277 278 290 296 297 298 300 299 298 295 293 296 297 297 297 296 298 299 299 298 292 292 294 294 293 294 297 299 299 300 298 297 296 295 296 298 297 296 294 292 292 293 293 294 293 292 292 293 293 292 292 290 292 291 292 293 293 294 294 295 294 294 294 293 292 292 291 291 290 290 291 290 291 290 289 289 289 289
286 287 290 286 290 285 284 284 283 290 290 291 292 294 296 293 294 293 289 293 298 298 298 297 298 299 299 297 295 289 288 290 290 295 296 297 297 296 299 300 300 299 299 300 299 299 300 299 296 295 293 291 289 290 292 293 291 292 290 290 291 290 290 290 292 293 294 294 294 293 293 293 292 292 291 291 290 290 290 290 290 290 289 289 289 289
288 286 285 286 286 289 286 282 284 284 281 286 293 297 300 300 300 299 295 292 298 299 297 297 297 298 299 299 295 287 288 289 292 295 298 294 293 295 293 294 297 299 300 300 300 300 300 299 294 291 292 291 289 290 291 289 291 291 290 290 289 289 289 290 292 292 292 293 293 293 293 293 292 291 291 290 290 290 291 290 290 290 289 290 289 289
286 287 285 283 284 287 285 283 282 280 284 293 293 296 298 300 299 294 290 288 294 296 300 299 298 299 299 299 291 290 290 289 292 297 291 294 294 294 296 297 297 298 298 298 299 300 299 297 295 292 288 287 288 289 290 290 290 291 291 290 289 289 290 290 292 292 292 293 293 293 293 293 292 292 291 290 291 291 290 290 290 290 288 290 290 289
284 284 285 284 282 284 285 284 282 286 286 291 294 296 295 297 298 294 284 285 297 297 299 299 298 299 299 298 291 292 293 291 293 298 294 296 297 297 297 299 298 295 295 296 296 296 297 296 291 289 288 288 290 290 289 289 290 291 291 291 289 289 290 291 293 294 294 293 291 291 292 292 291 291 290 290 290 290 290 290 290 289 289 289 290 290
283 283 285 283 284 285 285 284 286 286 289 288 291 295 296 299 296 286 282 290 298 298 297 299 298 299 299 295 292 293 296 299 301 298 294 295 295 296 297 298 299 299 297 297 297 294 294 293 293 293 291 291 290 287 287 289 290 290 291 290 289 290 291 293 294 293 291 289 289 290 291 292 291 291 290 290 290 290 289 290 290 289 288 289 289 289
282 284 283 286 284 282 284 284 284 287 291 290 290 296 298 294 286 284 295 293 295 297 298 299 298 298 297 297 295 298 300 301 301 292 292 292 293 296 297 296 295 296 296 296 294 292 292 291 290 290 289 287 287 286 287 289 290 290 290 289 290 291 293 293 292 289 289 289 289 290 290 290 290 290 290 289 289 289 289 289 289 288 288 289 289 288
283 283 280 283 285 285 284 282 284 281 287 289 292 292 296 290 287 291 289 288 289 289 292 295 298 299 298 297 299 299 299 299 298 296 292 290 290 293 295 295 295 295 296 295 294 293 291 291 291 290 288 287 286 286 287 289 289 290 289 290 291 292 293 292 289 288 288 288 288 288 289 289 289 290 290 289 289 289 289 289 288 288 288 288 288 288
286 281 281 282 285 281 282 281 282 287 287 289 291 288 287 289 290 288 287 289 288 288 289 290 290 290 291 295 297 297 298 298 297 293 290 290 290 292 293 294 292 289 289 288 288 288 290 291 289 289 288 287 285 286 287 289 289 289 289 290 292 291 290 287 287 288 287 287 288 288 288 288 289 289 289 289 289 289 289 288 288 288 288 288 288 288
284 283 286 282 285 284 283 285 288 287 288 292 292 291 292 292 289 288 290 290 288 289 286 288 291 288 289 291 290 290 291 293 296 295 293 294 292 292 292 292 289 289 289 289 291 290 288 292 292 290 288 286 285 286 287 288 289 289 289 291 291 291 290 289 288 287 287 287 287 287 288 288 288 289 289 289 289 289 289 288 288 288 288 288 289 289
288 288 287 285 284 286 288 288 290 289 289 291 292 292 293 293 290 288 290 289 286 288 285 293 288 289 287 285 291 288 290 291 289 289 289 288 288 288 288 289 290 290 289 287 287 288 289 289 287 287 289 289 286 287 287 288 289 289 290 291 291 291 289 288 288 287 288 287 287 287 287 287 288 288 288 288 289 289 290 289 289 290 289 289 289 289
285 286 286 283 285 284 279 288 287 289 290 291 294 293 291 290 292 288 287 287 287 287 286 284 288 287 288 285 288 288 288 288 289 289 287 287 289 290 290 291 291 290 290 290 291 289 289 288 289 289 288 289 289 287 287 287 288 289 291 290 289 288 288 288 288 288 288 287 287 287 287 287 288 289 288 288 289 290 290 290 289 290 289 289 290 289
282 287 286 284 284 282 282 287 287 289 290 291 293 291 292 292 291 289 290 290 289 287 287 287 286 287 285 287 286 287 288 286 287 288 287 288 289 289 288 288 289 288 289 289 290 289 288 288 289 289 289 289 290 288 287 287 287 288 288 288 285 287 287 288 287 288 288 287 287 287 287 288 287 288 289 289 289 289 290 290 289 290 290 289 290 290
285 288 281 284 284 284 286 287 288 288 289 292 292 290 292 293 292 291 290 290 290 291 291 288 285 286 285 287 285 286 287 287 286 287 287 287 286 286 288 288 288 288 288 288 289 287 288 289 288 289 289 290 290 288 287 287 287 287 287 287 284 285 287 287 287 287 287 286 286 286 287 287 288 288 289 289 289 290 290 290 290 290 290 290 291 291
284 282 285 284 281 281 282 284 287 283 283 287 289 292 292 292 290 291 291 290 289 290 290 289 288 286 286 286 286 285 286 287 286 285 286 287 287 288 287 286 286 286 287 288 286 283 284 285 287 288 288 289 289 286 287 287 287 286 285 284 284 285 287 287 286 286 286 286 286 286 286 287 287 288 288 288 288 289 289 287 288 289 290 289 287 288
282 283 285 282 282 281 286 287 289 289 287 288 291 290 289 288 288 290 290 291 291 290 289 289 289 291 290 289 287 286 286 286 286 285 285 285 287 288 288 287 287 287 287 287 285 285 283 284 283 284 285 287 287 285 286 286 286 283 282 283 285 286 287 287 286 286 286 285 286 286 287 287 287 288 288 288 288 289 288 287 287 287 287 287 287 287
Wind_Speed
6 14 14 17 19 19 15 16 11 2 6 7 6 6 10 10 5 1 3 2 5 2 10 13 15 12 10 12 14 12 3 5 7 7 7 8 9 9 9 10 11 12 15 12 13 12 12 14 14 12 11 11 10 11 11 11 12 13 14 12 13 11 10 10 10 10 10 10 8 7 10 12 9 9 9 9 9 9 9 10 10 9 9 9 9 9
8 12 18 21 16 13 12 5 4 4 8 11 9 9 11 9 11 5 6 1 3 5 4 7 9 12 15 14 14 7 3 10 10 11 12 12 11 10 10 11 11 14 7 6 7 9 7 9 9 9 9 9 12 12 12 14 16 15 13 13 13 10 11 12 12 11 10 10 11 10 11 9 9 9 9 10 9 10 9 9 10 10 9 10 10 9
12 18 23 18 9 8 8 7 4 9 8 10 10 9 8 9 0 1 1 0 3 4 9 1 6 13 13 13 13 10 11 9 9 12 14 12 13 11 10 10 11 8 10 8 11 9 9 10 10 10 11 12 15 15 16 16 14 13 13 14 12 11 12 12 12 11 12 10 9 9 8 10 8 6 8 9 8 7 9 10 10 10 10 10 10 10
15 20 21 11 12 12 9 9 6 2 5 8 6 8 12 4 7 6 3 2 4 7 1 1 5 12 7 8 14 15 10 10 11 12 13 11 12 12 12 12 12 13 12 13 13 13 11 10 11 10 11 13 12 12 11 12 15 13 13 13 13 13 12 12 13 13 11 10 9 8 7 6 8 7 7 6 6 7 9 11 10 10 11 11 10 9
17 4 14 16 12 13 14 11 10 6 7 2 8 8 4 6 6 4 4 1 1 1 2 2 8 12 7 10 10 11 7 9 13 10 11 12 10 11 9 8 9 12 12 14 14 12 9 9 11 13 13 10 12 13 14 14 14 12 15 15 15 13 13 12 11 12 9 7 5 5 2 1 3 1 3 4 8 10 10 9 10 13 9 9 10 9
8 4 17 18 16 14 13 12 15 11 8 5 5 6 4 5 5 3 2 5 1 3 3 3 3 11 2 11 15 10 2 7 8 9 15 15 12 10 12 14 11 11 11 13 15 15 12 12 10 10 11 12 13 14 14 13 15 14 13 13 12 11 11 12 13 12 10 10 10 8 9 9 8 9 8 12 15 11 11 13 9 5 9 9 9 9
8 6 18 15 15 16 16 14 13 11 11 10 8 8 5 5 5 5 4 3 4 6 2 2 10 11 1 5 7 7 5 14 4 9 12 10 11 9 12 12 14 15 14 12 12 11 8 9 9 10 12 14 15 15 12 12 13 13 12 12 13 13 11 11 10 12 11 10 10 14 14 12 12 12 12 11 8 8 8 6 8 8 5 8 9 9
8 9 14 16 18 16 13 14 14 18 12 9 7 11 5 5 4 4 5 7 4 1 2 0 3 6 14 10 5 2 3 9 7 13 12 12 10 12 12 14 14 14 12 12 14 15 13 11 13 15 16 13 15 13 11 12 11 14 14 13 14 12 12 11 10 12 13 13 13 12 12 11 12 13 14 10 9 5 4 7 8 6 6 6 8 9
21 17 21 20 18 16 18 18 11 13 9 2 7 10 6 5 3 4 3 2 1 1 7 3 0 1 10 5 2 1 7 11 15 16 12 10 11 13 14 15 13 13 14 14 14 15 15 15 14 13 12 14 13 11 12 13 13 13 14 14 12 12 11 10 12 13 14 14 13 12 11 11 12 12 10 4 4 6 6 7 6 7 7 6 7 8
4 14 18 18 15 15 6 5 12 15 12 2 4 9 7 7 6 4 3 2 2 1 11 7 5 7 14 7 5 1 3 12 16 15 14 12 10 11 11 11 13 14 12 11 14 15 14 12 12 12 10 7 12 13 12 12 11 12 11 12 12 13 11 11 12 13 14 14 11 11 12 15 14 10 6 4 6 6 6 9 8 6 6 6 6 7
5 7 10 11 12 6 7 8 11 10 3 8 10 9 6 6 4 3 4 2 1 5 14 7 10 9 11 13 11 9 11 15 11 5 6 4 6 10 9 12 13 12 11 10 11 12 12 9 8 6 10 12 8 8 9 10 11 10 10 12 13 14 12 11 13 13 14 13 12 13 14 16 15 12 9 8 9 7 7 9 8 7 6 6 7 6
9 7 9 4 10 4 13 5 3 7 9 10 3 6 8 4 5 5 3 2 2 10 3 12 12 9 13 7 5 11 5 7 11 14 9 7 10 12 12 10 10 9 9 8 8 10 11 10 7 6 10 10 10 7 9 10 8 9 10 10 13 12 12 11 12 12 13 13 14 14 15 15 16 12 11 13 14 11 11 10 8 5 5 6 6 7
9 14 7 6 7 20 11 13 1 8 8 7 10 10 10 3 3 4 2 2 8 11 0 3 9 2 22 8 3 4 11 8 8 7 7 9 12 12 11 10 9 6 5 5 8 9 9 10 10 9 10 8 8 11 12 11 10 10 10 12 14 14 13 13 12 14 15 14 15 15 15 15 13 12 14 14 13 10 10 8 8 7 8 6 7 8
5 6 10 5 6 9 17 15 7 8 10 10 13 12 11 6 7 10 9 1 3 2 2 3 0 9 8 4 14 18 14 12 10 11 12 8 9 10 9 8 6 6 5 7 8 9 10 10 10 10 10 10 10 11 11 11 11 11 11 12 14 15 13 12 12 14 14 16 16 15 15 14 12 12 13 12 12 10 8 7 9 9 8 8 10 9
11 11 13 17 11 14 17 16 20 14 17 16 10 14 11 11 5 13 8 13 10 4 1 3 6 9 6 6 1 7 8 8 7 8 6 8 11 10 7 6 7 7 8 8 8 10 11 11 10 9 10 9 9 9 9 9 11 10 11 12 14 13 11 12 13 12 15 15 15 14 14 13 11 12 11 12 10 8 8 7 8 8 7 9 9 9
16 3 10 22 8 22 19 14 15 12 8 7 4 4 5 12 1 3 1 1 2 3 1 3 8 2 7 4 7 8 6 8 7 8 6 10 8 6 8 9 10 10 9 7 7 9 10 8 6 6 6 7 7 8 8 9 10 11 12 12 14 15 14 14 14 14 15 15 13 14 14 14 12 11 9 9 7 7 7 7 8 8 9 9 8 8
4 11 13 7 9 20 16 11 8 18 12 9 6 13 9 5 9 4 3 2 2 4 9 3 8 7 8 12 15 15 7 10 8 9 7 10 9 6 9 9 9 10 9 9 8 8 7 4 6 6 6 6 7 7 10 12 11 13 12 11 13 12 10 12 14 15 13 13 12 13 12 11 10 11 12 12 9 7 6 7 8 9 9 8 8 6
18 11 14 17 16 18 20 17 14 18 6 10 11 9 4 4 5 4 4 3 1 5 8 4 15 6 4 14 1 10 15 18 15 15 13 7 4 7 11 9 10 11 10 7 5 5 5 5 6 6 6 7 9 11 10 11 11 11 12 13 14 13 14 12 11 12 12 12 12 11 11 11 11 11 11 9 8 6 7 8 8 7 8 9 8 8
5 5 2 9 14 8 5 11 5 1 4 11 15 10 11 5 8 1 4 4 3 6 6 4 3 4 10 14 1 2 10 14 16 14 6 7 6 9 9 10 10 8 7 8 7 5 6 7 8 8 9 8 7 7 8 8 7 7 7 7 10 13 13 13 12 11 10 9 9 9 11 11 10 9 8 7 7 7 9 10 9 9 9 6 7 7
7 6 3 2 5 8 10 13 14 11 2 5 8 8 1 2 3 7 9 1 3 7 3 8 4 12 11 9 11 10 7 10 11 6 9 12 11 10 9 9 9 9 9 8 6 6 6 7 7 8 9 9 9 8 8 6 5 8 9 8 9 7 6 6 7 7 9 9 8 8 6 6 7 8 9 9 9 9 11 10 9 9 7 9 7 8
7 1 8 2 3 13 11 10 16 19 16 4 8 7 3 5 1 2 1 7 6 6 9 9 9 11 7 8 13 17 13 10 10 12 10 9 6 8 9 10 9 9 9 8 6 6 6 6 6 6 5 5 4 4 4 5 8 8 6 7 7 9 8 8 8 7 8 7 8 7 9 8 7 9 8 8 9 10 10 8 8 9 9 5 9 8
3 4 11 6 7 13 12 15 24 26 23 20 20 19 19 18 11 14 12 2 3 6 8 6 18 12 2 6 12 14 17 19 18 13 7 6 7 8 10 9 7 7 8 7 6 6 6 6 6 5 3 2 3 4 5 5 4 5 7 8 7 5 6 7 7 9 8 7 8 9 9 9 7 8 7 8 7 9 9 9 9 8 6 8 8 7
6 3 7 11 10 13 10 5 5 2 10 11 14 13 14 8 5 7 13 8 0 5 3 3 3 15 6 9 10 8 11 13 9 3 7 4 8 9 9 7 5 6 6 7 8 7 7 6 5 4 4 4 5 5 5 4 6 7 6 5 5 7 8 8 8 6 6 7 8 9 8 7 7 6 6 8 8 9 10 8 6 6 8 8 6 5
8 4 8 4 4 3 2 3 3 2 9 7 6 2 10 13 15 13 9 3 8 2 6 5 7 18 1 5 8 6 4 3 4 3 6 5 5 7 6 6 7 6 6 5 5 5 6 5 5 5 5 5 6 6 7 6 5 4 5 6 5 8 7 6 5 5 5 5 6 5 5 7 6 6 7 9 9 10 8 6 5 4 5 5 4 5
8 5 13 9 5 3 4 3 2 5 2 8 8 7 12 12 15 4 5 1 4 10 11 7 17 21 1 1 4 3 5 7 8 8 5 6 5 6 6 6 5 5 4 5 6 7 6 5 7 7 6 7 7 5 5 6 6 5 5 5 7 6 5 5 5 6 6 6 7 6 6 6 6 7 8 9 7 7 5 4 3 3 4 4 4 5
13 11 15 14 14 10 11 15 15 11 16 9 11 14 14 18 18 9 16 5 12 11 13 11 13 20 1 1 1 2 4 6 8 9 4 6 6 6 7 7 4 5 7 6 6 5 8 10 6 5 6 8 7 5 5 4 4 4 4 5 4 5 5 5 4 5 5 5 7 7 7 7 7 9 10 8 5 5 4 3 4 4 4 5 5 4
4 4 12 15 21 22 24 26 28 26 18 20 22 24 24 24 27 22 15 16 20 16 16 19 23 16 5 4 1 3 3 6 6 5 5 4 6 7 5 6 5 6 6 7 7 6 3 4 9 10 8 6 5 5 5 5 5 5 5 4 4 4 4 4 5 4 5 5 6 6 8 8 8 7 5 4 4 3 4 4 4 4 4 4 4 4
2 6 15 15 20 20 11 2 6 11 13 16 20 25 24 24 24 24 19 22 18 16 22 14 24 23 9 2 3 5 6 5 6 6 7 5 4 5 6 5 4 2 4 3 4 6 9 10 7 7 7 6 7 5 5 4 5 5 6 7 6 5 4 5 5 5 5 6 6 7 8 6 4 4 3 3 3 4 4 4 4 5 4 4 4 4
9 12 17 17 20 19 5 7 12 17 21 22 25 22 24 23 22 25 25 22 20 17 18 18 21 17 14 6 7 8 7 7 6 5 5 4 3 3 3 3 5 5 4 5 7 7 8 9 9 7 6 7 5 6 5 5 5 4 5 5 5 5 6 6 6 6 6 6 8 7 5 4 4 4 4 4 4 5 5 5 4 4 4 3 3 3
5 12 14 16 18 17 8 7 12 17 15 17 19 21 20 21 22 22 22 25 24 18 17 23 14 16 13 11 13 12 7 8 5 2 2 1 3 4 3 4 5 6 6 8 9 9 8 9 6 5 4 5 6 6 6 6 7 8 9 8 6 6 5 6 7 7 7 8 7 5 5 5 4 5 4 5 6 6 5 5 4 4 4 3 3 2
10 11 14 10 12 13 9 5 8 14 15 18 17 18 19 17 16 19 20 21 18 14 14 14 16 19 14 12 17 15 12 4 1 3 4 5 4 4 5 7 7 7 8 7 7 8 7 6 6 5 6 7 7 9 8 9 8 6 6 6 6 8 7 7 7 7 8 9 6 6 5 5 5 6 6 6 6 5 6 5 4 4 4 4 4 4
10 7 8 8 11 12 8 12 11 12 17 20 21 19 17 16 17 17 19 21 19 22 24 23 20 19 19 12 10 8 11 18 15 11 6 6 6 5 7 8 7 8 8 8 7 6 7 8 8 8 10 10 9 8 9 10 9 6 10 9 9 8 7 8 8 9 9 7 6 6 7 6 6 7 7 7 8 6 5 4 4 4 5 5 5 5
11 9 10 9 11 11 12 16 18 14 13 18 22 20 19 19 21 22 25 26 25 23 22 21 23 21 21 9 11 12 16 18 19 16 10 9 8 7 9 7 7 7 8 8 8 8 9 10 11 11 10 7 9 10 13 11 6 11 12 10 9 7 9 10 9 8 8 7 8 7 7 7 7 7 7 8 6 5 4 5 5 6 6 7 5 4
12 15 12 10 14 12 15 15 11 12 19 19 14 23 29 30 31 29 29 31 31 24 22 22 24 16 5 9 12 16 13 16 16 15 14 14 14 11 8 8 8 8 8 8 9 10 10 8 8 9 9 9 10 12 11 8 13 12 7 5 5 9 8 9 9 9 9 8 8 8 7 7 8 8 8 6 5 5 6 6 7 6 5 5 5 6
14 14 14 7 9 11 10 9 12 21 18 9 20 27 30 33 31 33 28 28 21 16 12 16 17 21 18 15 16 11 8 12 9 8 10 13 14 16 17 9 8 10 13 11 11 11 11 11 9 8 8 11 14 11 7 8 11 6 5 8 9 9 9 9 10 10 9 9 8 8 8 9 9 9 8 7 7 7 7 8 6 7 7 6 7 7
3 14 9 9 6 4 9 14 15 16 7 17 22 20 21 22 15 9 18 19 19 22 23 26 29 29 27 16 1 3 7 9 8 10 15 17 17 15 11 10 11 12 14 14 13 15 12 11 14 15 15 13 9 7 8 12 7 8 9 6 8 8 8 9 9 9 7 9 10 10 10 10 10 9 8 8 8 9 9 9 9 9 7 6 5 4
3 5 6 10 9 16 11 13 14 4 12 16 7 11 15 18 19 23 23 30 35 32 32 29 30 27 15 6 7 3 2 2 4 12 15 15 11 9 14 15 14 14 15 15 13 15 17 16 14 14 9 4 5 7 10 9 7 8 6 8 9 8 8 7 9 10 11 12 10 11 11 11 11 10 10 10 10 11 11 11 11 8 6 7 7 6
8 9 3 3 7 8 12 12 9 7 15 15 14 14 22 28 30 29 23 22 11 12 6 11 20 24 23 18 9 5 5 3 12 17 17 10 6 9 7 7 10 13 15 14 14 16 17 14 7 6 7 8 7 9 7 6 7 8 9 8 7 8 8 9 12 12 11 13 13 12 12 12 12 11 11 11 13 14 11 9 6 8 7 9 8 8
4 8 4 3 3 6 10 13 12 13 12 11 24 21 19 18 15 5 7 19 8 13 21 22 25 27 26 20 6 10 7 10 17 20 3 15 11 11 13 17 21 18 13 13 17 18 17 14 14 9 5 6 8 11 10 9 9 9 10 9 8 8 9 12 13 12 13 15 14 12 12 12 12 12 12 13 14 12 11 12 11 7 7 6 6 6
10 9 8 8 6 5 6 9 10 4 7 8 7 12 8 13 16 13 17 21 20 21 18 21 24 26 24 14 11 11 12 15 19 18 11 15 18 20 20 20 15 10 14 17 14 14 17 14 7 4 7 9 14 9 8 9 9 11 11 11 10 10 12 15 17 17 16 10 7 9 10 11 12 12 13 14 11 10 11 8 7 8 9 7 6 6
6 3 9 15 10 7 8 7 2 4 4 2 2 11 14 15 15 18 23 17 18 10 10 15 22 26 21 8 12 13 16 21 22 10 12 11 10 11 14 15 17 17 18 17 17 17 12 12 10 12 11 11 8 4 6 8 9 11 11 10 11 14 16 17 16 12 9 6 7 9 11 10 12 14 12 9 9 8 7 8 9 8 9 9 7 6
0 3 1 6 12 10 3 6 5 1 1 2 3 16 17 14 15 19 11 2 5 18 19 19 16 15 10 13 12 16 19 19 20 5 10 10 11 13 15 15 13 12 12 11 10 7 7 8 8 9 9 6 2 4 6 8 10 11 9 9 13 17 17 15 11 6 7 9 10 10 10 11 10 9 9 8 8 10 10 8 7 8 8 7 7 8
5 7 7 10 4 2 4 2 3 8 2 8 1 5 10 13 3 1 2 2 2 2 5 9 16 18 15 16 20 21 22 18 14 11 9 7 8 11 12 13 14 15 15 12 9 8 4 7 8 8 7 4 4 5 7 9 10 10 9 12 17 15 13 13 7 6 7 8 9 10 11 10 11 11 9 10 10 10 10 8 9 8 8 8 8 9
2 4 2 2 3 6 7 9 5 0 3 4 6 4 2 1 0 1 2 5 6 1 1 2 3 2 3 8 12 14 15 15 13 7 6 7 9 11 11 11 8 5 5 5 4 5 2 6 6 6 7 7 6 7 8 12 12 11 11 16 14 9 9 4 5 7 8 8 9 9 9 10 11 10 9 10 10 10 9 10 9 9 9 9 9 9
4 4 2 3 2 3 3 1 2 4 4 3 0 3 3 5 3 1 2 1 1 3 1 2 1 2 1 3 5 2 5 7 10 6 4 8 6 7 9 9 5 5 5 6 8 6 6 9 10 7 7 5 5 6 8 9 11 12 13 14 10 11 12 10 9 9 9 9 9 10 9 9 9 10 10 10 11 11 11 11 10 10 9 9 9 9
3 2 2 2 2 4 3 7 4 3 5 6 1 5 5 4 3 1 4 4 2 2 2 1 1 0 1 1 1 3 4 6 4 4 2 4 4 6 6 7 8 7 7 6 6 6 7 6 5 6 8 8 7 8 8 9 10 12 14 11 10 12 7 8 8 9 11 10 10 10 9 10 9 9 10 10 9 11 9 11 11 11 10 9 9 9
2 2 1 1 3 0 2 0 3 2 2 3 4 1 2 4 5 3 4 4 4 2 3 3 1 2 1 1 3 3 4 5 5 5 4 5 7 8 8 9 9 7 6 7 10 8 6 6 7 8 9 10 9 9 9 10 10 13 11 9 7 6 7 9 11 11 9 10 9 8 9 11 10 9 9 10 9 9 9 9 9 9 10 10 11 10
3 2 1 3 1 4 5 4 2 1 2 4 3 4 5 4 6 4 5 5 5 4 3 2 0 1 1 2 3 2 4 3 2 5 4 5 6 6 6 7 8 6 8 8 9 6 6 6 8 9 9 11 12 6 8 7 10 10 10 7 3 5 7 9 10 12 12 12 10 9 10 11 12 12 10 10 11 11 11 10 10 11 13 15 15 14
2 2 2 3 3 3 3 4 5 4 4 7 7 3 4 4 7 6 6 6 6 6 6 3 3 3 2 5 2 2 2 6 4 5 5 5 5 5 7 7 6 7 6 6 8 6 8 8 9 10 8 12 10 7 7 9 10 9 8 7 5 6 8 9 9 9 7 6 7 8 8 9 10 11 11 11 11 10 10 11 12 12 9 6 5 8
1 3 2 2 2 2 4 4 1 1 4 5 3 2 1 4 3 7 10 8 5 5 5 5 4 2 5 4 4 3 4 5 6 5 6 6 6 7 6 6 6 6 7 7 5 5 6 8 8 8 9 11 9 6 7 8 9 7 6 5 6 7 8 9 7 7 8 8 8 8 8 8 8 7 7 7 8 8 7 5 7 7 7 7 6 7
2 3 1 4 4 1 1 3 3 3 2 2 3 4 4 3 4 5 7 9 9 6 3 4 7 8 5 3 6 6 6 6 7 5 5 5 7 8 7 6 6 6 8 8 6 7 6 7 6 7 8 12 8 6 7 8 8 6 6 6 7 9 9 7 8 8 8 8 10 11 10 9 8 9 9 8 8 8 9 5 4 5 7 8 7 7
Wind_Direction
147 173 190 202 204 199 198 203 199 181 168 122 146 172 210 210 244 262 223 221 201 167 221 222 236 249 253 244 252 253 208 235 256 256 244 244 240 236 237 227 227 228 233 229 228 228 219 216 215 214 208 210 208 208 203 201 205 204 202 194 206 200 192 191 194 196 194 196 199 209 208 214 208 210 209 212 212 212 214 212 210 211 213 212 213 215
174 189 209 211 195 188 190 179 144 132 148 159 171 185 215 200 222 203 196 212 182 171 267 234 256 258 249 254 257 265 203 238 230 242 244 240 236 234 231 234 231 233 247 258 255 241 235 228 220 209 208 203 205 212 202 204 206 206 202 201 206 189 195 199 197 195 197 201 199 197 208 210 210 208 207 218 214 216 217 215 213 213 213 213 213 210
192 206 212 199 172 158 151 177 164 167 171 169 178 190 209 227 62 314 221 68 184 140 259 204 246 252 251 257 264 253 237 236 225 227 236 233 238 233 229 233 239 241 242 238 243 241 229 226 219 206 208 209 210 207 203 207 204 204 202 208 201 197 196 201 198 193 204 201 202 198 206 201 214 218 215 221 217 211 218 219 217 216 216 215 217 212
191 217 213 168 179 157 170 176 172 168 165 176 167 158 217 135 158 245 262 135 195 168 221 242 253 271 274 262 258 251 234 235 236 230 237 228 235 234 228 221 226 233 237 241 238 235 226 217 216 208 210 212 209 211 212 210 207 205 207 205 202 201 199 199 200 202 202 197 199 207 204 206 202 203 207 214 218 213 216 224 218 222 218 215 218 214
195 231 168 178 177 166 172 176 189 175 190 217 187 194 158 171 200 167 222 102 139 313 85 19 306 284 231 261 265 258 220 230 244 242 243 244 231 238 245 244 229 232 227 235 242 240 228 217 217 210 212 206 208 211 209 205 207 207 207 206 201 200 200 202 198 199 190 181 189 193 173 152 219 276 186 208 229 221 219 224 218 223 214 218 219 215
199 164 149 175 170 175 166 182 194 184 203 195 232 193 156 139 160 155 116 128 55 283 242 134 331 266 226 225 240 252 80 232 235 233 240 239 231 226 237 241 241 237 233 231 236 234 224 217 219 216 212 207 212 213 211 206 208 207 208 205 203 202 201 202 199 191 183 189 188 179 193 203 205 216 208 215 219 212 214 220 224 223 209 215 220 217
179 201 159 158 166 173 182 192 191 173 198 199 212 152 136 142 139 147 162 121 231 213 282 159 206 270 326 245 245 255 244 251 263 237 246 242 241 229 229 234 236 234 237 237 246 247 230 218 214 219 215 212 212 216 207 207 210 211 210 203 200 201 203 200 193 184 186 191 197 199 203 207 207 216 225 225 225 218 223 223 222 220 205 211 216 221
140 173 149 163 169 174 186 199 186 180 179 216 119 153 153 101 107 166 164 192 220 271 327 110 173 236 283 251 218 225 227 261 269 258 248 239 235 234 232 231 234 236 234 235 235 237 232 222 207 215 213 210 215 211 202 208 207 206 207 202 202 203 201 194 187 184 189 196 200 204 210 211 216 216 228 213 222 217 203 210 220 214 212 205 210 216
174 173 166 168 171 177 196 200 165 171 175 193 149 149 153 130 111 122 127 178 290 1 266 167 32 269 246 266 327 120 254 266 258 254 249 236 230 234 236 237 239 239 235 229 234 235 229 223 220 220 216 215 212 206 204 206 205 205 205 204 201 203 199 194 186 188 194 200 200 203 206 217 224 225 232 201 204 209 202 218 210 210 210 204 206 210
170 174 171 167 170 193 180 120 138 164 190 19 87 81 81 77 65 62 93 97 331 118 240 187 184 224 265 245 202 349 211 246 246 243 246 241 232 230 237 244 240 240 241 237 236 240 237 230 227 222 223 214 211 209 207 207 205 206 202 201 199 203 198 195 191 191 195 199 198 202 209 217 225 220 224 190 215 212 198 222 214 208 206 203 205 207
137 170 150 161 188 168 113 137 156 160 89 129 98 92 60 45 56 37 65 89 55 265 239 175 199 195 278 242 214 168 209 218 247 274 252 260 255 251 233 231 236 236 236 238 239 244 248 240 226 211 211 218 215 210 205 208 206 202 199 199 201 204 198 193 194 190 195 196 198 208 211 216 224 218 210 214 227 212 208 221 215 209 209 200 208 197
137 126 157 206 152 121 116 89 78 128 149 126 107 116 92 7 18 47 343 52 163 257 197 187 179 180 225 268 175 211 216 205 207 238 237 232 240 245 245 236 238 237 234 237 237 245 243 246 231 201 215 213 210 195 203 208 200 198 200 197 202 204 199 194 193 191 197 195 203 210 212 217 221 213 210 217 226 215 219 219 218 206 204 210 207 207
153 174 171 155 160 138 142 127 64 136 166 152 128 129 162 186 133 244 62 226 205 229 320 4 147 120 239 228 239 236 250 254 234 228 223 219 233 239 249 251 249 250 263 250 241 240 242 235 226 211 216 208 201 201 201 198 193 196 198 197 199 205 198 194 189 194 198 198 204 208 212 218 218 213 216 221 227 218 219 213 214 197 211 204 213 213
195 178 170 138 137 172 148 154 144 157 184 160 170 162 175 161 189 211 198 238 299 296 275 128 25 254 269 309 223 241 239 232 237 235 234 230 238 240 247 258 260 263 245 244 238 237 235 229 227 215 210 205 205 205 198 195 194 196 198 199 201 209 196 195 192 196 197 204 207 208 212 216 213 216 218 224 225 218 213 204 210 206 207 208 215 212
148 183 197 153 192 166 173 174 171 167 173 190 176 179 196 184 185 208 178 202 212 183 164 255 130 232 153 252 306 245 250 266 253 253 249 240 241 243 252 266 274 272 263 244 246 235 231 228 218 213 210 208 206 201 198 196 199 195 201 199 205 208 200 197 198 196 202 206 209 210 212 216 211 217 217 224 222 212 207 202 203 206 203 213 217 213
193 196 175 180 151 168 179 173 163 131 143 192 172 51 224 220 108 192 215 128 137 148 206 217 209 194 186 278 284 228 253 263 251 255 241 258 251 255 264 254 252 259 265 256 241 249 243 233 221 218 213 210 203 202 201 200 198 198 204 202 205 205 198 196 198 201 202 207 207 210 211 214 212 216 219 226 215 213 198 196 199 209 210 216 216 216
189 227 157 166 151 173 181 153 171 144 185 169 142 207 200 74 100 80 23 17 65 45 250 149 299 282 307 288 262 279 255 253 240 240 235 241 245 244 248 245 246 246 249 253 243 242 250 247 236 220 212 205 204 201 204 204 198 200 200 201 208 210 204 202 204 204 203 207 206 211 212 213 211 213 215 218 213 204 192 194 205 211 215 215 214 211
175 186 173 160 177 191 179 164 161 181 129 127 205 201 86 103 107 133 200 354 44 203 254 124 226 258 54 267 193 222 242 253 261 255 234 230 215 233 243 241 237 239 239 250 255 249 241 225 225 225 225 214 205 203 205 209 205 205 202 200 203 204 204 207 203 207 206 207 209 211 211 213 211 212 216 213 208 192 193 210 213 212 217 214 208 207
114 51 320 203 178 167 116 109 150 228 357 187 186 152 163 206 228 258 114 198 174 232 264 285 274 279 207 236 120 235 227 243 242 248 276 260 229 233 240 248 249 251 264 260 251 246 236 221 221 219 220 221 218 214 213 213 206 211 213 212 208 207 206 204 203 205 209 208 209 210 210 208 209 209 210 207 203 193 205 214 212 213 218 212 207 211
186 152 153 298 160 147 153 159 190 187 291 5 72 168 164 122 233 170 204 139 144 250 356 276 86 248 191 223 168 242 230 233 257 252 231 239 232 225 229 227 235 235 233 242 250 246 236 229 221 216 219 218 216 214 214 206 196 207 210 204 212 218 211 205 204 199 205 206 205 209 203 207 202 202 204 204 199 205 213 215 209 215 215 215 205 212
185 148 169 151 141 142 183 190 193 178 173 145 163 181 215 214 316 134 208 170 159 214 228 263 287 256 230 182 178 212 238 247 224 235 229 237 234 232 230 224 220 220 225 230 238 246 246 244 237 231 229 235 246 232 214 202 203 209 199 210 208 204 205 203 203 192 208 190 205 200 203 204 197 203 203 204 203 210 216 213 211 215 215 202 217 207
113 210 173 130 169 186 194 195 197 189 180 180 179 191 187 179 177 183 222 63 154 170 227 182 249 259 269 195 189 197 210 228 242 246 254 219 232 231 232 236 221 214 228 222 225 234 245 248 256 261 262 254 229 225 211 216 203 197 201 210 201 204 207 199 199 200 198 194 198 200 204 205 202 204 199 202 201 212 212 213 213 211 203 215 219 203
155 148 124 169 186 187 192 208 30 197 201 206 194 197 179 175 172 201 209 211 73 243 112 189 4 268 169 172 205 197 220 232 249 295 275 217 227 235 236 240 234 218 216 216 221 227 234 241 251 263 263 237 222 224 210 204 204 207 206 194 196 197 214 200 205 199 189 194 198 205 205 198 201 192 196 199 206 214 214 214 213 202 209 216 216 213
70 109 109 35 31 332 350 157 88 42 181 209 237 60 158 187 194 203 210 165 191 195 231 267 265 261 227 230 212 209 247 314 313 232 243 240 245 254 257 248 242 238 231 237 243 250 245 250 274 285 264 243 234 222 210 204 203 200 197 197 187 208 210 204 200 187 188 197 206 200 190 199 191 187 199 205 210 213 213 207 211 197 210 209 199 206
179 227 156 150 159 167 33 17 5 346 175 205 196 199 188 181 194 189 89 119 188 201 212 190 241 261 221 201 234 279 304 289 275 263 205 247 257 261 257 244 237 244 264 243 234 232 246 257 249 239 234 234 235 226 202 200 200 195 201 187 200 210 200 199 188 186 196 194 197 193 195 201 191 200 206 213 209 214 200 201 191 171 195 182 195 203
203 165 166 173 166 163 177 185 193 183 201 191 196 189 195 185 182 138 206 167 221 211 188 210 241 249 45 71 325 280 302 294 266 263 267 211 222 235 247 257 235 218 226 233 239 238 229 228 238 247 238 234 232 220 209 208 206 205 202 209 197 194 196 203 180 190 183 189 188 198 202 203 198 209 211 209 207 200 179 177 180 179 193 186 187 190
171 186 206 190 185 191 194 197 194 182 175 189 189 188 193 194 190 193 196 197 211 212 211 212 222 238 76 205 274 267 265 252 281 300 282 238 234 242 256 258 240 211 212 219 220 233 263 273 236 227 230 232 232 218 211 204 208 208 206 219 215 204 191 184 168 176 178 185 194 193 207 203 207 205 203 195 180 155 159 171 172 171 187 188 177 183
105 183 206 201 218 217 204 47 94 162 182 197 191 203 198 196 193 195 197 213 199 211 230 212 227 235 222 323 285 279 276 281 276 275 284 288 261 239 235 251 272 261 254 249 240 223 222 231 240 235 232 231 231 219 220 211 206 203 200 213 210 195 179 167 165 173 184 183 199 206 208 202 187 177 165 150 148 164 170 165 172 182 179 170 189 204
180 204 207 203 218 217 160 141 155 178 191 195 201 198 201 200 197 201 210 219 209 219 228 224 226 230 229 239 257 244 226 224 229 237 244 255 280 277 282 258 248 242 243 235 233 224 228 232 232 230 226 232 232 232 227 217 222 221 229 228 213 185 192 172 169 178 184 193 205 211 186 167 156 143 147 157 163 170 174 176 175 168 163 173 196 195
170 223 207 202 214 213 185 159 165 180 194 206 206 207 204 199 206 211 220 223 218 219 226 240 234 231 223 203 231 249 221 215 234 255 329 299 258 250 257 256 244 241 232 230 230 229 230 238 249 245 236 238 229 232 227 223 219 214 212 215 201 190 191 165 185 178 189 202 208 190 174 160 157 163 160 170 178 181 180 181 183 189 202 210 203 202
206 213 201 193 212 217 195 182 178 184 185 209 207 207 205 204 209 215 223 232 238 253 260 267 262 261 239 190 211 222 251 205 122 245 205 236 257 242 223 237 240 238 238 238 247 248 247 251 251 250 241 237 227 226 224 225 224 220 227 221 196 194 184 174 183 190 192 208 195 182 164 164 172 168 184 187 184 184 185 190 188 203 224 229 221 217
211 220 192 197 204 216 192 193 200 188 191 203 205 200 193 189 203 209 219 221 213 220 226 234 242 243 247 203 193 202 214 245 241 225 219 254 244 215 223 236 238 241 239 241 244 255 261 252 247 239 237 233 226 222 222 225 222 204 224 212 204 190 170 181 188 191 201 202 183 180 176 175 171 184 192 185 196 189 186 177 185 207 208 204 204 211
193 202 206 185 210 214 196 196 202 196 199 212 208 194 188 198 206 211 221 219 217 211 218 224 237 235 234 128 172 204 201 214 231 249 238 227 232 235 246 245 250 258 256 250 245 243 242 241 238 235 239 235 227 221 225 214 200 219 219 208 202 156 179 190 190 193 201 196 189 188 183 180 186 193 194 202 192 179 172 181 189 198 198 204 204 194
189 203 215 165 210 204 190 197 191 197 212 211 184 191 191 196 199 204 212 215 216 204 215 216 232 238 79 136 186 219 196 207 212 220 234 250 256 250 229 226 245 253 258 259 252 249 250 249 248 238 232 232 233 227 227 196 210 220 197 174 154 181 189 182 192 197 203 193 196 191 185 187 191 199 202 187 181 176 181 188 201 198 198 194 195 197
200 202 211 183 210 209 179 163 201 218 216 160 193 200 196 203 202 208 217 221 225 228 251 266 261 255 224 207 218 231 183 211 218 210 215 222 227 238 248 230 225 247 253 254 258 253 247 244 247 251 241 232 228 226 197 210 217 211 175 174 178 187 183 193 192 200 200 197 195 187 189 191 194 200 193 183 180 183 192 195 197 198 200 195 194 196
233 204 193 214 182 87 176 188 210 227 161 198 208 197 199 205 205 215 244 243 227 217 216 229 235 235 232 221 140 181 185 198 215 223 218 219 216 221 229 231 230 234 246 249 247 252 248 240 232 230 231 233 223 210 196 218 199 186 205 171 182 184 196 192 195 202 192 202 199 196 193 190 195 195 185 183 183 192 198 196 199 200 192 190 197 204
115 351 234 216 191 208 182 192 217 99 175 219 203 192 178 186 187 193 213 224 214 211 207 218 230 240 253 244 213 185 118 103 241 247 235 224 218 213 215 223 223 230 234 244 246 250 249 242 234 236 237 253 190 199 213 215 180 190 175 179 193 183 189 187 202 207 203 208 202 198 194 192 192 192 187 185 188 198 199 196 199 199 182 187 194 192
155 183 327 230 228 211 191 201 205 211 211 208 211 198 194 197 197 202 209 239 232 222 216 230 243 245 242 233 213 137 109 157 250 251 227 204 197 223 250 258 248 235 231 233 243 248 252 257 261 247 216 229 216 212 210 184 184 177 185 193 182 179 190 193 213 212 204 209 204 198 192 191 190 190 188 187 198 200 199 195 192 196 183 188 186 195
164 168 157 140 295 207 217 204 201 206 219 192 206 203 199 196 195 149 211 250 227 176 200 208 223 235 235 227 180 133 129 222 245 251 127 156 192 204 216 228 228 227 228 230 233 242 252 254 246 242 213 209 218 222 197 183 172 176 194 191 185 191 194 208 220 212 207 213 204 192 190 189 190 192 190 195 202 195 192 194 194 181 173 188 183 190
156 176 159 216 224 278 239 219 215 204 213 230 225 196 155 117 113 120 211 230 230 209 192 202 219 232 234 219 145 174 191 231 238 246 160 177 184 200 208 222 230 229 235 236 241 239 243 249 265 234 213 212 225 213 184 171 171 189 197 197 177 185 210 216 218 215 214 215 188 186 184 188 192 194 194 200 195 191 195 181 173 181 181 186 183 178
174 179 198 210 214 242 259 259 350 309 292 300 192 132 131 130 141 189 216 215 238 172 176 205 215 224 229 189 147 207 216 223 236 234 158 193 198 205 218 220 220 217 222 229 233 236 241 249 238 241 232 227 231 184 171 166 176 197 205 195 182 200 212 221 221 213 202 178 174 185 191 191 194 197 200 196 191 183 179 183 187 177 180 182 179 170
100 123 231 193 211 199 180 263 244 267 313 339 276 146 136 130 201 208 209 313 112 154 196 203 209 224 214 194 192 219 230 229 239 195 181 198 194 201 215 224 231 239 238 239 248 254 253 258 257 256 261 254 245 186 172 174 189 207 203 195 210 214 214 220 221 194 178 178 187 189 190 196 198 196 192 181 172 181 192 189 180 182 179 173 171 174
196 163 195 182 174 153 141 260 237 222 327 17 333 128 167 176 256 307 358 347 324 276 220 197 199 213 197 211 212 217 229 236 234 220 206 208 209 220 224 228 226 226 233 240 251 247 238 266 263 256 256 249 204 183 172 173 199 211 205 211 222 221 223 220 181 184 189 186 185 190 192 192 190 191 185 184 185 185 190 180 178 180 176 174 173 175
259 111 197 195 198 165 185 206 201 183 282 15 11 160 347 74 219 315 88 358 334 314 121 211 339 317 306 250 228 230 233 238 243 227 220 232 227 234 236 239 248 282 300 303 282 279 293 261 260 256 245 227 199 181 178 177 201 210 209 224 226 222 231 197 179 178 184 191 196 188 189 189 189 186 184 184 180 185 184 185 184 178 183 179 175 176
265 154 304 169 241 172 181 196 179 148 206 292 57 272 284 274 287 253 23 313 323 352 248 76 36 317 225 192 247 276 282 262 253 252 236 252 264 268 271 274 301 290 266 257 260 264 254 248 259 268 278 263 214 202 191 193 198 210 215 229 209 216 213 195 184 182 193 194 196 194 190 183 185 186 185 183 179 183 188 187 182 184 187 178 182 182
21 137 204 79 279 241 248 206 271 327 317 313 212 233 270 284 291 289 292 327 262 231 205 37 193 243 288 259 209 264 236 253 261 279 253 276 274 271 274 285 280 269 265 269 274 255 249 272 268 254 255 259 231 219 208 207 201 208 223 223 212 217 197 186 185 195 201 197 193 191 178 182 186 186 186 184 188 193 193 189 187 189 182 182 188 189
246 189 96 150 273 56 315 48 135 230 249 283 324 292 260 264 258 224 258 237 247 240 261 235 197 216 208 178 184 203 239 246 242 257 230 230 235 238 238 241 251 252 261 267 258 254 260 249 260 254 243 253 247 223 222 212 213 220 229 224 213 194 179 187 194 203 203 199 195 181 177 182 184 185 187 188 190 194 192 190 193 192 187 189 189 191
313 211 98 238 198 130 234 156 195 215 230 269 274 314 308 270 263 256 238 256 271 289 270 272 151 313 147 264 220 195 262 265 214 257 260 246 246 251 248 240 244 254 245 236 256 256 258 257 248 252 250 250 257 239 236 231 229 228 233 237 192 178 180 193 198 201 204 199 186 184 184 190 187 183 187 190 189 191 194 198 195 196 194 191 191 189
279 69 232 182 181 265 310 325 293 301 326 301 293 241 236 293 316 302 279 282 287 295 300 297 202 234 164 242 246 211 267 283 237 241 249 267 264 261 252 247 245 237 249 260 255 229 226 235 239 241 244 251 251 239 235 237 237 231 225 223 191 170 182 203 205 211 209 187 177 191 189 193 190 193 191 191 195 203 200 195 195 203 212 219 212 202
352 206 240 54 325 282 218 250 153 33 298 302 290 267 330 321 332 315 317 318 310 301 311 345 319 240 219 246 228 191 223 257 259 228 238 244 253 259 261 250 249 257 259 244 250 246 233 226 227 244 247 256 255 233 236 241 244 237 222 199 189 180 197 205 195 198 203 185 191 189 184 195 195 196 195 195 197 195 204 208 207 213 208 201 183 184
178 256 135 199 207 232 1 235 219 252 313 279 285 326 11 50 26 348 318 307 312 301 311 350 335 329 314 257 186 202 228 232 251 221 232 258 263 264 266 274 280 283 279 282 291 278 246 240 213 222 247 255 261 246 238 242 241 225 209 194 189 189 203 188 195 204 203 190 199 194 189 187 188 190 193 190 189 191 193 177 162 177 176 158 154 154